Temperature
21 18 17 18 19 19 20 21 20 21 22 22 20 20 19 19 18 17 16 16 15 16 16 16 16 16 16 16 16 16 16 16 16 16 17 17 17 16 16 16 16 16 16 16
18 18 19 20 21 21 21 21 21 21 22 22 20 19 18 18 18 17 16 15 15 15 15 15 16 16 16 16 16 16 16 16 16 16 16 16 16 16 16 16 16 16 16 15
18 19 21 22 21 21 21 21 21 21 22 21 21 19 18 18 17 17 16 16 15 15 15 15 15 15 15 15 15 15 15 16 16 16 16 15 15 15 15 15 15 15 15 15
19 21 22 22 22 22 20 22 22 22 20 19 20 18 17 17 16 16 16 15 15 15 15 15 15 14 14 14 14 15 15 15 15 15 15 15 15 15 15 15 15 15 15 15
20 21 22 22 22 23 22 22 22 21 20 18 18 17 16 16 16 16 15 15 14 14 14 14 14 14 14 14 14 14 14 14 14 14 14 14 14 14 14 14 14 14 14 14
20 22 22 22 23 23 22 21 20 17 17 17 17 17 16 15 16 16 15 15 14 14 14 14 14 13 13 13 13 13 13 13 13 13 13 13 14 13 13 13 13 13 14 14
20 21 22 23 22 22 21 18 17 17 16 16 17 17 16 16 17 16 15 14 14 14 13 13 13 13 13 13 13 12 12 13 13 13 13 13 13 13 13 13 13 13 13 13
19 19 21 22 22 21 20 18 17 17 16 16 16 16 16 16 16 16 15 14 14 13 13 13 13 12 12 12 12 12 12 12 12 12 12 12 12 12 12 12 12 12 12 12
18 19 21 22 22 21 20 18 17 15 16 15 16 16 16 15 15 15 14 13 13 13 13 12 12 12 12 11 11 11 11 11 11 11 11 11 11 11 11 11 11 11 12 12
18 18 20 21 22 21 20 18 15 15 15 16 16 16 15 15 14 14 13 13 12 12 12 12 11 11 11 10 10 10 10 10 10 10 10 10 10 10 11 11 11 11 11 11
17 17 18 19 19 19 19 19 17 15 15 15 15 15 16 15 14 14 13 12 12 12 11 11 11 10 10 10 10 10 9 9 9 10 10 10 10 10 10 10 10 10 10 10
17 16 16 18 19 20 19 18 17 16 16 15 15 15 16 14 14 14 13 12 11 11 11 11 10 10 10 9 9 9 9 9 9 9 9 9 9 9 9 9 10 10 10 10
17 15 16 17 17 18 18 18 17 15 14 14 15 15 15 14 14 13 12 11 11 11 10 10 10 9 9 9 9 8 8 8 8 8 8 8 8 9 9 9 9 9 9 9
17 15 15 16 16 17 18 19 18 16 14 15 15 15 14 13 13 12 11 11 11 10 10 9 9 9 8 8 8 8 8 8 8 8 8 8 8 8 8 8 8 8 8 8
16 16 17 17 18 18 19 19 19 18 16 16 16 15 14 13 12 12 11 10 10 9 9 9 9 8 8 8 8 7 7 7 8 8 7 7 7 7 7 7 8 8 8 8
14 15 16 17 18 19 18 18 19 18 17 16 16 15 14 13 12 11 11 10 9 9 9 9 8 8 8 7 7 7 7 7 7 7 7 7 7 7 7 7 7 7 7 7
14 14 15 15 17 18 16 16 17 16 16 16 15 14 13 12 11 11 10 10 9 9 9 8 8 8 7 7 7 7 7 7 7 7 7 7 7 7 7 7 7 7 7 7
14 14 13 14 16 16 16 16 16 16 15 15 14 13 12 12 11 11 11 10 9 9 8 8 8 7 7 7 7 7 6 6 6 6 6 6 7 6 6 6 6 6 6 7
14 14 13 13 15 15 16 16 16 15 14 14 13 12 11 11 10 10 10 10 10 9 8 8 7 7 7 7 6 6 6 6 6 6 6 6 6 6 6 6 6 6 6 6
14 13 13 14 15 15 15 16 16 15 13 14 13 12 11 11 10 9 9 9 9 8 8 7 7 7 7 6 6 6 6 6 6 6 6 6 6 6 6 6 6 6 6 6
14 13 13 14 14 14 15 15 16 14 13 13 13 12 12 11 10 10 9 9 8 8 7 7 7 7 6 6 6 6 6 6 6 6 6 6 6 6 6 6 6 6 6 6
13 13 13 13 14 14 15 15 14 13 13 13 13 12 12 11 10 9 9 8 8 7 7 7 7 6 6 6 6 6 6 6 6 6 5 6 6 6 6 6 6 6 6 6
13 13 12 12 12 13 14 14 15 14 13 13 12 12 11 10 9 9 8 8 8 7 7 7 7 6 6 6 6 6 6 5 5 5 5 5 5 5 6 6 6 6 6 6
13 14 12 12 13 13 14 14 14 14 14 13 12 12 11 10 9 8 8 8 7 7 7 7 7 6 6 6 6 6 6 5 5 6 5 5 5 6 6 6 6 6 6 6
13 13 12 12 13 13 13 14 14 14 13 12 11 11 10 10 9 8 8 8 7 7 7 7 7 6 6 6 6 6 6 6 6 6 5 6 6 6 6 6 6 6 6 6
13 13 12 12 13 13 13 13 14 13 12 12 11 10 10 10 9 8 8 8 8 7 7 7 7 6 6 6 6 6 6 6 6 6 6 6 6 6 6 6 6 6 6 6
Wind_Speed
2 2 4 8 7 7 5 7 9 10 7 5 8 8 9 10 12 13 13 13 13 11 7 6 6 7 8 7 4 2 4 3 2 0 0 1 1 1 0 1 2 3 3 3
4 6 12 9 8 6 7 7 8 7 4 4 7 6 8 9 12 14 16 15 14 12 9 7 7 7 8 7 5 5 4 4 3 2 1 1 1 1 1 1 2 1 2 2
7 9 8 7 8 7 7 5 5 4 3 5 7 4 5 5 9 11 11 13 13 14 11 9 7 7 7 6 5 4 5 5 5 5 3 3 3 2 3 3 2 2 2 2
7 9 7 6 6 5 5 5 2 2 4 2 4 3 2 5 7 8 8 9 11 11 10 8 8 7 7 6 5 6 5 6 6 5 4 4 2 1 1 1 1 3 4 3
6 5 3 4 6 4 5 3 1 1 3 3 5 4 2 4 6 7 8 10 10 10 10 10 9 9 7 6 6 5 6 6 6 6 5 4 3 1 1 1 2 2 3 4
8 6 3 4 4 3 2 5 7 6 5 3 2 3 3 3 7 9 10 11 11 12 11 10 9 9 7 6 6 6 6 6 6 6 5 4 4 3 3 3 3 2 2 3
6 6 4 2 3 4 4 6 5 6 5 2 3 2 3 4 3 9 12 12 11 12 11 10 9 8 7 7 6 6 7 6 6 6 6 5 4 4 3 3 2 2 2 3
2 6 4 2 3 3 1 8 7 3 2 3 3 1 3 4 1 7 11 13 13 11 10 9 9 8 7 7 6 6 6 5 6 6 5 5 5 3 3 3 2 2 2 2
2 5 5 4 2 4 2 3 7 7 3 2 2 2 2 4 8 9 11 12 12 10 10 9 8 8 7 7 6 5 5 6 6 5 5 5 5 4 4 4 4 3 2 2
4 2 6 5 5 4 4 6 6 6 4 1 2 2 3 3 5 7 9 10 10 10 9 9 8 8 7 6 5 5 6 5 5 5 5 5 5 4 4 4 5 4 4 3
3 2 5 4 2 2 3 2 5 4 6 6 3 5 5 8 7 9 9 9 11 10 9 9 7 7 6 5 5 5 5 5 5 5 5 5 5 5 5 4 4 4 4 4
2 4 1 4 4 1 3 2 5 4 2 4 4 5 2 6 7 8 9 10 11 11 10 9 8 7 6 5 5 5 5 4 4 4 5 5 4 5 5 5 5 5 5 5
3 4 2 6 6 5 3 2 3 5 4 3 4 4 1 5 7 8 11 12 12 11 10 9 7 7 5 4 4 4 4 4 4 4 4 5 5 5 5 5 5 5 5 6
3 4 4 4 5 3 3 3 2 4 3 3 5 5 3 6 8 9 11 12 12 11 10 9 7 6 5 4 4 4 4 3 3 4 4 4 4 5 5 5 6 6 6 7
4 2 1 2 3 1 1 3 3 2 4 6 6 6 8 9 10 11 12 12 12 11 10 9 7 5 4 4 3 3 3 3 3 4 4 4 4 4 5 6 6 6 7 8
5 3 3 3 3 3 6 7 4 3 2 4 6 2 3 7 9 10 11 13 12 11 10 9 7 6 4 3 3 3 3 2 3 4 3 3 4 5 5 5 6 7 8 8
3 3 3 3 5 3 4 6 5 4 2 3 4 5 9 9 11 11 11 11 11 11 9 8 6 5 4 3 3 3 2 3 4 4 4 4 4 5 5 6 7 8 8 8
3 2 2 1 4 1 1 2 4 6 6 5 6 9 9 9 7 6 8 10 10 9 8 7 6 5 4 3 3 3 4 4 5 4 4 5 5 6 6 6 7 7 6 7
6 4 2 2 1 0 2 3 2 3 2 2 7 10 10 11 8 5 5 8 9 8 7 6 5 5 4 4 4 5 5 5 5 5 5 4 5 5 6 6 6 5 6 7
4 5 3 2 2 2 3 5 2 4 1 1 7 11 11 9 5 4 6 9 10 9 7 7 6 5 4 3 5 6 5 5 4 4 4 4 5 5 5 5 5 5 6 6
3 3 2 1 1 1 3 5 3 2 4 2 6 9 9 4 5 9 11 10 9 9 8 7 7 5 4 4 5 5 5 4 3 4 5 5 5 4 4 4 4 5 6 6
2 3 2 2 2 2 4 3 2 3 1 5 6 6 7 10 13 12 11 11 10 9 8 7 6 5 4 5 6 6 4 3 4 5 6 6 5 4 5 6 5 5 6 6
2 2 3 3 3 3 1 2 3 4 5 5 6 8 13 13 12 11 10 10 9 9 7 6 7 5 4 4 5 6 4 4 5 6 6 6 6 6 5 6 6 5 5 5
3 2 3 3 2 2 3 5 5 6 6 7 9 12 12 12 12 11 10 9 8 7 7 6 7 6 4 4 5 5 5 5 6 6 5 5 6 6 6 5 4 4 4 4
2 2 3 3 2 4 4 4 6 8 9 11 11 10 11 13 12 10 9 9 8 7 6 6 6 6 5 5 5 5 5 6 6 5 5 5 5 5 6 5 5 4 2 1
1 2 4 4 5 4 3 4 8 10 10 11 12 10 9 11 11 10 9 7 8 8 7 7 6 6 6 5 5 5 5 5 6 4 4 3 3 4 4 5 5 8 6 5
Wind_Direction
274 77 251 244 226 218 248 274 278 273 260 181 177 168 163 154 142 139 137 138 134 129 124 123 126 112 101 85 79 75 63 38 54 111 123 110 93 65 32 85 143 168 182 183
5 261 244 248 262 263 269 270 276 296 293 163 156 142 154 153 151 148 145 143 139 131 125 115 107 102 100 96 77 62 50 37 29 7 347 84 104 103 69 32 45 111 139 148
217 247 251 248 258 266 277 253 259 279 358 73 107 80 113 122 118 131 141 140 139 141 142 131 112 97 91 84 73 68 48 36 28 26 33 37 44 36 29 15 1 357 38 83
248 256 262 256 248 231 267 261 239 32 69 19 91 132 175 144 125 135 141 139 143 140 138 128 117 104 92 83 72 64 51 37 28 35 52 65 63 55 346 317 349 357 24 37
272 280 274 252 247 218 231 246 24 55 108 60 32 106 253 148 144 161 156 148 144 139 134 125 117 108 95 82 71 59 54 45 34 35 43 57 53 41 5 4 22 17 18 30
267 277 244 233 252 229 192 47 31 48 73 61 307 132 243 218 186 170 159 150 145 133 123 112 106 100 88 75 65 56 54 42 36 40 40 48 48 44 42 30 24 17 15 17
322 315 306 303 333 339 77 75 32 13 26 256 295 108 245 286 226 171 155 144 133 125 119 115 110 100 90 76 62 52 51 40 34 39 38 37 42 50 48 35 37 32 18 9
336 307 305 305 214 216 165 129 148 174 201 289 360 3 287 315 111 136 134 130 124 119 116 113 109 103 94 81 66 55 47 40 38 43 35 30 33 41 36 34 44 38 19 0
179 277 300 301 273 150 120 129 156 130 124 76 328 309 328 44 84 107 120 122 121 119 115 109 101 95 86 76 65 56 50 44 39 38 34 33 32 38 38 39 43 35 15 12
157 267 306 318 19 24 139 148 93 108 136 170 282 264 231 205 153 142 135 131 123 121 112 102 94 91 84 76 63 53 51 47 38 34 31 37 31 36 44 52 46 37 23 17
124 118 321 10 33 302 13 59 98 111 142 151 209 259 218 196 177 164 146 136 128 123 115 106 97 89 82 70 59 51 46 44 38 34 34 35 30 31 40 46 38 33 26 26
116 117 286 275 269 243 163 163 133 138 193 163 162 253 263 170 164 152 138 129 124 121 115 111 104 96 87 75 63 51 44 45 38 38 42 37 33 38 43 41 36 35 38 37
109 102 46 347 344 359 35 2 119 130 123 145 159 243 44 138 141 141 138 134 129 122 119 115 106 102 98 85 68 54 45 48 45 47 51 44 41 47 45 41 38 40 46 45
100 98 147 194 237 267 318 331 36 108 128 173 198 196 187 163 155 149 141 136 131 127 125 120 113 109 103 92 83 67 52 51 54 53 58 54 50 53 49 46 45 47 51 53
64 95 205 240 267 325 352 341 14 76 168 176 195 184 198 180 162 152 145 138 134 134 131 128 125 121 113 104 94 84 72 64 64 63 60 54 54 59 58 56 51 50 55 56
41 53 14 346 340 34 30 14 23 42 84 134 136 154 166 135 129 139 144 144 143 141 136 132 129 122 117 114 108 101 89 82 77 75 68 60 64 66 63 60 57 58 56 54
20 56 45 330 330 40 29 3 26 51 26 155 169 173 139 134 145 153 151 147 146 142 137 135 132 125 122 120 119 116 104 90 81 77 72 67 72 75 71 73 67 63 60 60
148 87 102 4 28 80 254 343 69 77 38 57 103 129 138 135 129 131 141 141 139 139 136 132 128 123 120 114 106 101 95 90 86 78 71 69 77 80 78 74 70 64 62 62
156 135 102 100 102 239 330 348 25 92 37 92 119 123 118 112 93 85 119 131 136 134 134 132 129 127 122 115 109 103 90 86 84 79 75 73 85 89 86 81 74 69 70 64
100 106 110 106 115 202 274 313 331 105 77 194 137 141 145 136 140 170 144 127 121 120 123 125 122 116 120 121 112 106 99 91 88 86 83 78 85 91 91 90 80 74 78 74
56 59 112 139 154 267 299 316 24 121 232 183 144 150 156 163 157 141 133 124 124 126 126 124 120 120 129 126 114 107 104 101 101 92 85 80 82 86 93 87 77 82 79 73
126 115 111 117 120 260 317 26 96 193 156 124 128 137 124 115 117 124 128 128 129 129 127 125 124 123 121 119 117 113 109 102 95 90 85 78 68 75 88 87 78 74 80 76
67 172 161 158 191 244 339 105 129 129 119 122 123 128 127 126 132 133 133 133 134 134 132 129 131 126 115 115 121 123 121 107 98 91 85 78 71 62 66 76 80 72 72 79
343 55 98 85 78 83 75 86 85 99 117 122 129 133 134 134 138 136 137 138 138 136 136 135 131 128 124 122 121 128 125 114 106 100 92 83 81 67 57 58 64 75 78 82
304 49 82 87 114 74 54 92 106 107 111 117 125 130 137 137 139 141 142 143 142 139 137 138 138 136 137 136 131 131 128 119 111 105 99 92 90 88 76 64 53 67 61 134
289 157 150 200 201 158 172 148 125 121 126 130 128 124 131 138 140 139 141 142 141 141 139 137 137 139 145 146 139 137 136 131 124 118 114 109 109 102 98 93 65 42 50 58
Height
1497 1503 1507 1503 1502 1504 1504 1506 1507 1498 1488 1493 1498 1503 1506 1507 1509 1512 1516 1518 1520 1522 1525 1527 1528 1528 1529 1531 1532 1533 1534 1534 1535 1535 1536 1536 1537 1538 1538 1538 1539 1539 1539 1539
1503 1505 1497 1494 1495 1498 1501 1505 1503 1495 1485 1490 1499 1506 1506 1507 1509 1511 1514 1517 1520 1522 1524 1527 1527 1529 1529 1531 1531 1532 1534 1534 1534 1534 1534 1534 1535 1536 1535 1536 1536 1536 1536 1536
1504 1497 1490 1493 1494 1497 1498 1501 1499 1496 1490 1491 1499 1513 1513 1512 1513 1515 1517 1517 1519 1522 1524 1526 1528 1530 1530 1531 1532 1533 1533 1533 1532 1532 1532 1533 1534 1534 1534 1533 1533 1533 1533 1532
1497 1490 1489 1491 1492 1492 1500 1490 1489 1491 1501 1510 1505 1527 1521 1516 1517 1517 1519 1520 1521 1524 1525 1526 1528 1530 1531 1531 1532 1532 1532 1532 1532 1531 1531 1531 1531 1531 1531 1531 1530 1530 1530 1529
1495 1487 1488 1490 1488 1486 1490 1485 1488 1492 1501 1512 1513 1524 1527 1518 1520 1519 1520 1521 1523 1524 1526 1527 1528 1530 1531 1532 1532 1532 1532 1531 1531 1530 1530 1529 1529 1528 1528 1527 1527 1527 1527 1527
1489 1484 1484 1484 1481 1481 1482 1488 1493 1501 1511 1527 1521 1525 1528 1522 1517 1517 1519 1521 1523 1525 1527 1528 1529 1530 1531 1532 1532 1532 1531 1530 1529 1529 1528 1527 1527 1526 1525 1525 1525 1525 1524 1524
1493 1486 1482 1481 1484 1483 1486 1504 1522 1525 1534 1533 1520 1522 1526 1515 1512 1513 1515 1519 1522 1524 1526 1528 1530 1531 1531 1531 1531 1531 1530 1529 1528 1528 1527 1526 1525 1524 1524 1523 1523 1522 1522 1522
1504 1502 1486 1482 1485 1489 1490 1502 1524 1534 1536 1534 1523 1527 1522 1513 1510 1511 1514 1518 1521 1524 1526 1528 1530 1531 1532 1531 1531 1530 1530 1529 1528 1527 1526 1525 1524 1523 1523 1522 1521 1521 1520 1520
1504 1502 1484 1480 1479 1483 1491 1500 1504 1521 1527 1535 1531 1524 1517 1513 1512 1514 1517 1519 1521 1524 1526 1529 1530 1531 1531 1531 1531 1530 1529 1528 1527 1526 1525 1523 1522 1522 1521 1521 1520 1519 1519 1518
1494 1500 1489 1481 1479 1482 1487 1494 1509 1521 1534 1538 1532 1527 1525 1517 1516 1515 1517 1520 1522 1524 1527 1529 1529 1531 1531 1531 1531 1530 1529 1528 1526 1525 1524 1522 1521 1521 1520 1519 1519 1518 1517 1517
1491 1500 1496 1489 1491 1494 1493 1496 1505 1517 1522 1534 1539 1531 1511 1511 1512 1514 1516 1519 1521 1524 1527 1529 1530 1531 1531 1532 1531 1530 1529 1528 1526 1525 1523 1522 1521 1520 1519 1518 1518 1517 1516 1515
1492 1501 1505 1497 1488 1487 1490 1495 1502 1517 1521 1523 1530 1528 1507 1508 1510 1512 1516 1519 1522 1525 1528 1530 1531 1532 1532 1532 1531 1530 1529 1528 1527 1525 1524 1523 1522 1521 1519 1518 1517 1516 1515 1514
1491 1502 1512 1508 1503 1494 1494 1493 1496 1506 1517 1522 1528 1524 1508 1508 1510 1513 1516 1519 1523 1526 1528 1531 1532 1533 1533 1533 1532 1531 1530 1529 1527 1526 1525 1523 1522 1521 1519 1518 1517 1516 1515 1514
1489 1501 1510 1515 1510 1500 1498 1495 1495 1503 1517 1519 1516 1513 1511 1510 1511 1514 1516 1519 1522 1526 1528 1530 1532 1533 1533 1533 1532 1531 1530 1529 1528 1527 1525 1524 1523 1521 1520 1519 1518 1517 1516 1515
1491 1501 1499 1498 1495 1494 1495 1494 1494 1498 1503 1510 1509 1508 1507 1507 1510 1514 1517 1519 1523 1526 1528 1530 1531 1532 1532 1532 1532 1531 1531 1530 1529 1528 1526 1525 1524 1523 1521 1521 1519 1518 1518 1517
1496 1501 1500 1499 1493 1493 1497 1495 1493 1495 1497 1501 1504 1508 1505 1507 1511 1515 1518 1520 1523 1526 1527 1529 1530 1531 1532 1532 1532 1531 1531 1530 1529 1528 1527 1526 1525 1524 1523 1522 1521 1520 1520 1519
1500 1504 1508 1509 1498 1497 1507 1504 1500 1500 1500 1500 1504 1506 1506 1509 1512 1515 1518 1521 1523 1525 1527 1529 1530 1531 1532 1532 1532 1532 1531 1531 1530 1529 1528 1527 1526 1526 1525 1525 1524 1523 1523 1522
1501 1505 1511 1512 1508 1516 1511 1501 1500 1501 1502 1500 1501 1504 1507 1510 1513 1516 1518 1520 1523 1526 1528 1529 1531 1532 1532 1533 1532 1532 1531 1531 1530 1530 1529 1529 1528 1528 1528 1527 1527 1527 1526 1526
1496 1503 1510 1515 1515 1513 1506 1501 1501 1504 1507 1504 1505 1507 1510 1512 1516 1520 1521 1522 1524 1526 1528 1530 1531 1532 1533 1533 1532 1532 1532 1532 1531 1531 1531 1531 1530 1530 1530 1530 1530 1531 1530 1530
1496 1501 1510 1513 1515 1518 1510 1501 1499 1503 1511 1506 1505 1508 1510 1513 1519 1522 1522 1523 1525 1527 1529 1531 1532 1533 1533 1533 1533 1533 1533 1533 1533 1533 1533 1533 1533 1533 1533 1534 1534 1534 1535 1535
1505 1507 1511 1514 1516 1512 1505 1500 1500 1511 1512 1506 1506 1508 1510 1511 1514 1518 1521 1524 1526 1528 1530 1531 1532 1533 1534 1534 1534 1534 1534 1534 1534 1535 1535 1535 1535 1536 1536 1537 1538 1538 1539 1539
1507 1511 1513 1514 1517 1517 1503 1501 1505 1508 1504 1505 1507 1509 1510 1511 1514 1518 1521 1524 1527 1529 1531 1532 1533 1534 1535 1536 1536 1536 1536 1536 1536 1537 1537 1537 1538 1539 1540 1540 1541 1542 1543 1543
1506 1507 1509 1511 1515 1508 1504 1503 1504 1503 1505 1506 1507 1509 1511 1513 1516 1520 1523 1526 1528 1530 1532 1534 1535 1536 1536 1537 1538 1538 1538 1538 1539 1539 1540 1540 1541 1542 1543 1544 1544 1545 1547 1548
1505 1503 1506 1509 1508 1507 1505 1505 1505 1505 1506 1508 1509 1510 1512 1515 1518 1521 1524 1527 1529 1532 1533 1535 1536 1537 1538 1539 1540 1540 1540 1541 1541 1542 1543 1543 1544 1545 1546 1547 1548 1549 1550 1551
1506 1504 1507 1509 1509 1508 1507 1507 1507 1507 1508 1509 1511 1512 1514 1516 1519 1522 1525 1528 1530 1533 1535 1536 1538 1539 1540 1541 1542 1542 1543 1544 1544 1545 1546 1547 1548 1548 1549 1550 1551 1553 1554 1555
1505 1506 1507 1509 1506 1507 1509 1508 1508 1509 1510 1511 1513 1515 1517 1519 1521 1524 1527 1529 1532 1534 1536 1538 1539 1540 1542 1543 1543 1544 1545 1546 1547 1548 1549 1550 1551 1552 1553 1554 1555 1556 1557 1558